When you browse on this site, cookies collect data to enhance your experience and personalize the content and advertising you see.
Visit our Privacy Policy to learn more. By continuing to use the site, you agree to this use of cookies and data.
  • In France
  • List of Countries
  • For 7 days
  • Water Temperature
  • Weather Map
  • Weather Widgets
  • user-avatar
    Login

    Hourly Weather Gweru

    Today, 23 August, Friday

    Time Temperature Precipitation Wind Pressure Humidity
    00:00 +8°C° 0 mm 3 mps 648 mmHg 73%
    01:00 +8°C° 0 mm 3 mps 647 mmHg 79%
    02:00 +7°C° 0 mm 2 mps 647 mmHg 85%
    03:00 +6°C° 0 mm 2 mps 646 mmHg 87%
    04:00 +6°C° 0 mm 2 mps 646 mmHg 88%
    05:00 +6°C° 0 mm 2 mps 646 mmHg 90%
    06:00 +8°C° 0 mm 2 mps 647 mmHg 83%
    07:00 +9°C° 0 mm 3 mps 648 mmHg 75%
    08:00 +11°C° 0 mm 3 mps 649 mmHg 67%
    09:00 +14°C° 0 mm 3 mps 649 mmHg 53%
    10:00 +18°C° 0 mm 4 mps 650 mmHg 39%
    11:00 +21°C° 0 mm 4 mps 651 mmHg 25%
    12:00 +22°C° 0 mm 4 mps 650 mmHg 23%
    13:00 +23°C° 0 mm 5 mps 650 mmHg 21%
    14:00 +25°C° 0 mm 5 mps 649 mmHg 19%
    15:00 +23°C° 0 mm 5 mps 649 mmHg 20%
    16:00 +22°C° 0 mm 5 mps 649 mmHg 21%
    17:00 +21°C° 0 mm 5 mps 648 mmHg 22%
    18:00 +19°C° 0 mm 5 mps 648 mmHg 28%
    19:00 +17°C° 0 mm 4 mps 648 mmHg 35%
    20:00 +13°C° 0 mm 4 mps 648 mmHg 41%
    21:00 +12°C° 0 mm 4 mps 648 mmHg 45%
    22:00 +11°C° 0 mm 4 mps 648 mmHg 50%
    23:00 +10°C° 0 mm 3 mps 648 mmHg 54%

    Tomorrow, 24 August, Saturday

    Time Temperature Precipitation Wind Pressure Humidity
    00:00 +10°C° 0 mm 3 mps 648 mmHg 57%
    01:00 +9°C° 0 mm 3 mps 647 mmHg 61%
    02:00 +9°C° 0 mm 3 mps 647 mmHg 64%
    03:00 +8°C° 0 mm 3 mps 647 mmHg 68%
    04:00 +8°C° 0 mm 3 mps 646 mmHg 72%
    05:00 +7°C° 0 mm 3 mps 646 mmHg 76%
    06:00 +9°C° 0 mm 3 mps 647 mmHg 67%
    07:00 +11°C° 0 mm 4 mps 648 mmHg 58%
    08:00 +13°C° 0 mm 5 mps 649 mmHg 49%
    09:00 +15°C° 0 mm 5 mps 649 mmHg 40%
    10:00 +19°C° 0 mm 5 mps 650 mmHg 31%
    11:00 +21°C° 0 mm 5 mps 650 mmHg 22%
    12:00 +22°C° 0 mm 5 mps 650 mmHg 20%
    13:00 +23°C° 0 mm 5 mps 649 mmHg 19%
    14:00 +25°C° 0 mm 5 mps 649 mmHg 17%
    15:00 +23°C° 0 mm 5 mps 648 mmHg 21%
    16:00 +22°C° 0 mm 5 mps 648 mmHg 24%
    17:00 +21°C° 0 mm 5 mps 647 mmHg 28%
    18:00 +19°C° 0 mm 4 mps 647 mmHg 37%
    19:00 +15°C° 0 mm 4 mps 647 mmHg 46%
    20:00 +13°C° 0 mm 3 mps 647 mmHg 55%
    21:00 +12°C° 0 mm 3 mps 647 mmHg 59%
    22:00 +11°C° 0 mm 3 mps 647 mmHg 63%
    23:00 +10°C° 0 mm 3 mps 647 mmHg 67%

    Day after tomorrow, 25 August, Sunday

    Time Temperature Precipitation Wind Pressure Humidity
    00:00 +10°C° 0 mm 2 mps 646 mmHg 72%
    01:00 +9°C° 0 mm 2 mps 646 mmHg 77%
    02:00 +9°C° 0 mm 2 mps 646 mmHg 83%
    03:00 +9°C° 0 mm 2 mps 645 mmHg 83%
    04:00 +8°C° 0 mm 2 mps 645 mmHg 84%
    05:00 +9°C° 0 mm 1 mps 645 mmHg 85%
    06:00 +11°C° 0 mm 1 mps 646 mmHg 74%
    07:00 +13°C° 0 mm 2 mps 647 mmHg 63%
    08:00 +16°C° 0 mm 2 mps 648 mmHg 52%
    09:00 +19°C° 0 mm 2 mps 649 mmHg 42%
    10:00 +23°C° 0 mm 2 mps 650 mmHg 31%
    11:00 +26°C° 0 mm 1 mps 650 mmHg 20%
    12:00 +27°C° 0 mm 1 mps 650 mmHg 18%
    13:00 +28°C° 0 mm 1 mps 649 mmHg 16%
    14:00 +29°C° 0 mm 1 mps 649 mmHg 14%
    15:00 +28°C° 0 mm 2 mps 648 mmHg 14%
    16:00 +27°C° 0 mm 2 mps 647 mmHg 15%
    17:00 +26°C° 0 mm 3 mps 647 mmHg 16%
    18:00 +22°C° 0 mm 3 mps 646 mmHg 23%
    19:00 +19°C° 0 mm 3 mps 646 mmHg 29%
    20:00 +16°C° 0 mm 3 mps 646 mmHg 35%
    21:00 +16°C° 0 mm 3 mps 646 mmHg 40%
    22:00 +14°C° 0 mm 3 mps 646 mmHg 44%
    23:00 +14°C° 0 mm 2 mps 646 mmHg 49%

    26 August, Monday

    Time Temperature Precipitation Wind Pressure Humidity
    00:00 +14°C° 0 mm 2 mps 646 mmHg 51%
    01:00 +13°C° 0 mm 2 mps 646 mmHg 53%
    02:00 +13°C° 0 mm 2 mps 645 mmHg 55%
    03:00 +12°C° 0 mm 2 mps 645 mmHg 57%
    04:00 +12°C° 0 mm 2 mps 645 mmHg 59%
    05:00 +12°C° 0 mm 2 mps 645 mmHg 61%
    06:00 +14°C° 0 mm 2 mps 646 mmHg 55%
    07:00 +17°C° 0 mm 2 mps 647 mmHg 50%
    08:00 +19°C° 0 mm 2 mps 649 mmHg 44%
    09:00 +24°C° 0 mm 1 mps 649 mmHg 35%
    10:00 +27°C° 0 mm 1 mps 650 mmHg 25%
    11:00 +31°C° 0 mm 1 mps 651 mmHg 15%
    12:00 +32°C° 0 mm 1 mps 650 mmHg 14%
    13:00 +32°C° 0 mm 1 mps 649 mmHg 12%
    14:00 +33°C° 0 mm 1 mps 649 mmHg 11%
    15:00 +32°C° 0 mm 2 mps 648 mmHg 12%
    16:00 +30°C° 0 mm 2 mps 647 mmHg 13%
    17:00 +29°C° 0 mm 3 mps 647 mmHg 14%
    18:00 +26°C° 0 mm 3 mps 647 mmHg 19%
    19:00 +22°C° 0 mm 3 mps 646 mmHg 23%
    20:00 +20°C° 0 mm 4 mps 646 mmHg 27%
    21:00 +19°C° 0 mm 3 mps 646 mmHg 31%
    22:00 +17°C° 0 mm 3 mps 646 mmHg 35%
    23:00 +16°C° 0 mm 3 mps 646 mmHg 39%

    27 August, Tuesday

    Time Temperature Precipitation Wind Pressure Humidity
    00:00 +16°C° 0 mm 3 mps 646 mmHg 43%
    01:00 +14°C° 0 mm 3 mps 645 mmHg 47%
    02:00 +14°C° 0 mm 3 mps 645 mmHg 52%
    03:00 +14°C° 0 mm 2 mps 645 mmHg 55%
    04:00 +14°C° 0 mm 2 mps 645 mmHg 59%
    05:00 +13°C° 0 mm 2 mps 645 mmHg 62%
    06:00 +15°C° 0 mm 2 mps 646 mmHg 56%
    07:00 +17°C° 0 mm 3 mps 647 mmHg 51%
    08:00 +20°C° 0 mm 3 mps 648 mmHg 45%
    09:00 +24°C° 0 mm 3 mps 648 mmHg 37%
    10:00 +27°C° 0 mm 2 mps 648 mmHg 29%
    11:00 +30°C° 0 mm 2 mps 649 mmHg 22%
    12:00 +32°C° 0 mm 1 mps 649 mmHg 19%
    13:00 +34°C° 0 mm 1 mps 648 mmHg 16%
    14:00 +33°C° 0 mm 0 mps 648 mmHg 13%
    15:00 +34°C° 0 mm 1 mps 647 mmHg 14%
    16:00 +32°C° 0 mm 1 mps 647 mmHg 15%
    17:00 +30°C° 0 mm 2 mps 646 mmHg 16%
    18:00 +28°C° 0 mm 2 mps 646 mmHg 21%
    19:00 +25°C° 0 mm 3 mps 645 mmHg 25%
    20:00 +21°C° 0 mm 3 mps 645 mmHg 29%
    21:00 +20°C° 0 mm 3 mps 645 mmHg 33%
    22:00 +19°C° 0 mm 3 mps 645 mmHg 37%
    23:00 +18°C° 0 mm 3 mps 645 mmHg 40%

    28 August, Wednesday

    Time Temperature Precipitation Wind Pressure Humidity
    00:00 +17°C° 0 mm 3 mps 644 mmHg 42%
    01:00 +17°C° 0 mm 2 mps 644 mmHg 45%
    02:00 +16°C° 0 mm 2 mps 644 mmHg 47%
    03:00 +16°C° 0 mm 2 mps 644 mmHg 48%
    04:00 +15°C° 0 mm 2 mps 644 mmHg 49%
    05:00 +15°C° 0 mm 2 mps 644 mmHg 50%
    06:00 +17°C° 0 mm 2 mps 645 mmHg 45%
    07:00 +19°C° 0 mm 3 mps 645 mmHg 40%
    08:00 +21°C° 0 mm 3 mps 646 mmHg 35%
    09:00 +25°C° 0 mm 2 mps 647 mmHg 30%
    10:00 +28°C° 0 mm 2 mps 647 mmHg 25%
    11:00 +31°C° 0 mm 2 mps 648 mmHg 20%
    12:00 +32°C° 0 mm 1 mps 647 mmHg 18%
    13:00 +32°C° 0 mm 1 mps 647 mmHg 17%
    14:00 +33°C° 0 mm 1 mps 646 mmHg 15%
    15:00 +32°C° 0 mm 1 mps 645 mmHg 17%
    16:00 +30°C° 0 mm 2 mps 645 mmHg 19%
    17:00 +28°C° 0 mm 2 mps 644 mmHg 20%
    18:00 +27°C° 0 mm 3 mps 645 mmHg 22%
    19:00 +26°C° 0 mm 3 mps 645 mmHg 24%
    20:00 +24°C° 0 mm 3 mps 645 mmHg 26%
    21:00 +22°C° 0 mm 3 mps 645 mmHg 28%
    22:00 +21°C° 0 mm 3 mps 645 mmHg 30%
    23:00 +20°C° 0 mm 4 mps 645 mmHg 32%
    Show more